Weather History for Gillette, WY

Change the Weather History Date:

Monday, December 3, 2012

  Actual Average Record
Temperature  
Mean Temperature 36 °F 25 °F  
Max Temperature 50 °F 36 °F 63 °F (1941)
Min Temperature 21 °F 15 °F -6 °F (1978)
Degree Days  
Heating Degree Days 29 40  
Month to date heating degree days 65 118  
Since 1 July heating degree days 1681 1993  
Cooling Degree Days 0 0  
Month to date cooling degree days 0 0  
Year to date cooling degree days 795 502  
Moisture  
Dew Point 21 °F    
Average Humidity 50    
Maximum Humidity 78    
Minimum Humidity 21    
Precipitation  
Precipitation T in 0.02 in 0.27 in (1927)
Month to date precipitation T 0.06  
Year to date precipitation 9.01 13.55  
Sea Level Pressure  
Sea Level Pressure 29.94 in    
Wind  
Wind Speed 8 mph (West)    
Max Wind Speed 33 mph    
Max Gust Speed 41 mph    
Visibility 10 miles    
Events Rain    
T = Trace of Precipitation, MM = Missing Value Source: NWS Daily Summary

Daily Weather History Graph

Daily Weather History Graph

Search for Another Location

Airport:

Trip Planner

Search our weather history database for the weather conditions in past years. The results will help you decide how hot, cold, wet, or windy it might be!

Date:

Astronomy

Dec. 03, 2012 Rise Set
Actual Time 7:20 AM MST 4:23 PM MST
Civil Twilight 6:47 AM MST 4:56 PM MST
Nautical Twilight 6:11 AM MST 5:32 PM MST
Astronomical Twilight 5:36 AM MST 6:07 PM MST
Moon 9:19 PM MST (12/3) 10:39 AM MST (12/3)
Length of Visible Light 10h 08m
Length of Day
9h 02m
Waning Gibbous, 77% of the Moon is Illuminated
Dec 3
Waning Gibbous
Dec 6
Last Quarter
Dec 13
New
Dec 19
First Quarter
Dec 28
Full

Hourly Weather History & Observations

Time (MST) Temp. Windchill Dew Point Humidity Pressure Visibility Wind Dir Wind Speed Gust Speed Precip Events Conditions
12:04 AM 42.8 °F 33.5 °F 35.6 °F 76% 29.65 in 10.0 mi NW 23.0 mph 34.5 mph N/A   Overcast
12:50 AM 37.4 °F 27.5 °F 33.8 °F 87% 29.72 in 10.0 mi NNW 18.4 mph 29.9 mph 0.00 in Rain Light Rain
12:53 AM 37.9 °F 28.5 °F 32.0 °F 79% 29.68 in 10.0 mi NNW 17.3 mph 31.1 mph 0.00 in Rain Light Rain
1:53 AM 37.9 °F - 30.9 °F 76% 29.68 in 10.0 mi Calm Calm - 0.00 in   Overcast
2:53 AM 39.0 °F 30.3 °F 30.0 °F 70% 29.73 in 10.0 mi NW 16.1 mph - N/A   Overcast
3:53 AM 39.0 °F 33.4 °F 28.0 °F 65% 29.76 in 10.0 mi NW 8.1 mph - N/A   Overcast
4:53 AM 36.0 °F 28.0 °F 21.9 °F 57% 29.81 in 10.0 mi NW 11.5 mph - N/A   Clear
5:53 AM 28.9 °F 19.2 °F 19.9 °F 69% 29.88 in 10.0 mi West 11.5 mph - N/A   Clear
6:53 AM 33.1 °F 26.1 °F 19.9 °F 59% 29.91 in 10.0 mi WSW 8.1 mph - N/A   Clear
7:53 AM 32.0 °F 23.0 °F 26.6 °F 80% 29.90 in 10.0 mi WSW 11.5 mph - N/A   Clear
8:53 AM 37.0 °F 33.3 °F 27.0 °F 67% 29.93 in 10.0 mi SW 4.6 mph - N/A   Clear
9:53 AM 42.1 °F 37.1 °F 24.1 °F 49% 29.95 in 10.0 mi South 8.1 mph - N/A   Clear
10:53 AM 42.1 °F 36.1 °F 27.0 °F 55% 29.96 in 10.0 mi SW 10.4 mph - N/A   Clear
11:53 AM 46.9 °F - 21.9 °F 37% 29.94 in 10.0 mi West 11.5 mph - N/A   Clear
12:53 PM 48.9 °F - 15.1 °F 26% 29.93 in 10.0 mi WNW 13.8 mph 18.4 mph N/A   Clear
1:53 PM 48.9 °F - 14.0 °F 25% 29.94 in 10.0 mi West 10.4 mph - N/A   Clear
2:53 PM 48.0 °F - 10.0 °F 22% 29.94 in 10.0 mi WNW 11.5 mph - N/A   Clear
3:53 PM 44.1 °F 39.0 °F 12.9 °F 28% 29.98 in 10.0 mi WNW 9.2 mph - N/A   Clear
4:53 PM 33.1 °F 26.1 °F 15.1 °F 48% 30.05 in 10.0 mi West 8.1 mph - N/A   Clear
5:53 PM 33.1 °F 25.5 °F 16.0 °F 50% 30.09 in 10.0 mi West 9.2 mph - N/A   Clear
6:53 PM 27.0 °F 20.5 °F 16.0 °F 63% 30.13 in 10.0 mi West 5.8 mph - N/A   Clear
7:53 PM 23.0 °F - 15.1 °F 72% 30.16 in 10.0 mi Calm Calm - N/A   Clear
8:53 PM 25.0 °F 20.7 °F 15.1 °F 66% 30.17 in 10.0 mi South 3.5 mph - N/A   Clear
9:53 PM 21.9 °F 17.2 °F 15.1 °F 75% 30.18 in 10.0 mi SSW 3.5 mph - N/A   Clear
10:53 PM 24.1 °F 14.4 °F 17.1 °F 75% 30.19 in 10.0 mi South 9.2 mph - N/A   Clear
11:53 PM 25.0 °F - 16.0 °F 69% 30.19 in 10.0 mi Calm Calm - N/A   Clear